Timeline UpdatesTrip UpdatesNews PostsPvt PostsTravel TipsAdmin PostsConv PostsFollowed PostsChat RequestsBlog PostsPNR Posts

Disclaimer
Search
 
 
Wed Sep 3, 2014 00:22:03 ISTHomeTrainsΣChainsAtlasPNRForumGalleryNewsFAQTripsMembersLoginFeedback
No Recent News for this Train
Other Trains in the News **new
Latest...
.
Wed Nov 20, 2013 (01:29PM)
⇐ Return Journey: Train# 11078

11077/Jhelum Express

Time-Table HAS CHANGED.
Yesterday (12:00AM)
Change Departure Station:
Change Arrival Station:
Post a Train Travel TipPost a Train Travel Tip **new
Post a Comment/Question/Picture/VideoPost a Comment/Question/Picture/Video
Inaugural Run
Sat Jan 01, 1977
Pantry/Catering
✓ Pantry Car Avbl
✓ Catering Avbl
Loco/Rake Reversals
DD/Daund Junction (7);
RSA - Rake Sharing
No RSA.
Rake/Coach Composition
From Pune-Daund Jn-->Loco, LDS, UR, A1, A2, B1, B2, B3, B4, B5, S1, PC, S2, S3 TO S10, UR, UR, MLTY; Daund Jn To Jammu Tawi--> Loco MLTY ,UR ,UR ,S10 To S2 ,PC ,S1,B5 -B1 ,A2 ,A1 ,UR ,LDS(DD-JAT)
Loco
PUNE-MMR: PUNE WDP-4D MMR-LDH : GZB/LDH WAP4 LDH -JAT :...
Read more...
LDH WDM3A (Single/Twins)
News    PNR    Forum    Time-Table    Availability    Fare Chart    Map    Arr/Dep History    Trips    Gallery    ΣChains    X/O    Timeline    
Travel Time: 40h 40m    64 halts    Distance: 2176 km    Avg Speed: 53 km/hr
Type: Mail/Express
Zone: CR/Central
Departs @ 17:20
Platform# 1
SMTWTFS
Pune Junction/PUNE 
Arrives @ 10:00 +2 nights
Platform# 1
SMTWTFS
Jammu Tawi/JAT 

64 halts. 316 intermediate Stations between Pune Junction and Jammu Tawi

Show ALL intermediate Stations  Show Old Time-Table

#CodeStation NameX/OArrivesAvgDepartsAvgHaltPFDay#KmSpeedElevZoneAddress
1PUNE»Pune Junction (6)»  -17:20-110.069556mCRPune 411001, Maharashtra
2URIUruli (2)X  17:46 17:45-17:47-1 2m2128.858553mCRDist. Pune 412202, Maharashtra
3DDDaund Junction (7)X18:35-18:50-15m5175.655521mCRNew Daund Dist. Pune 413801, Maharashtra
4ANGAhmadnagar (2)  20:22-20:25-3m11159.869650mCRAhmednagar 414001, Maharashtra
5BAPBelapur (2)X  21:24 21:23-21:25-1 2m11226.856541mCRShrirampur, Maharashtra
6KPGKopargaon (2)X  22:14 22:13-22:15-1 2m11271.439508mCRKopargaon 423601, Maharashtra
7MMRManmad Junction (6)23:20-23:30-10m31313.766580mCRManmad 423104, Maharashtra
8NGNNandgaon (3)O  00:03 23:53-00:05 23:55-2m21339.067476mCRNandgaon, Maharashtra
9CSNChalisgaon Junction (3)X  00:33-00:35-2m22381.282352mCRChalisgaon 424101, Maharashtra
10PCPachora Junction (4)XO  01:08-01:10-2m22426.0102264mCRPachora 424201, Maharashtra
11JLJalgaon Junction (4)  01:38-01:40-2m32473.872213mCRJalgaon 425001, Maharashtra
12BSLBhusaval Junction (8)X  02:00-02:10-10m12497.982208mCRBhusaval 425201, Maharashtra
13BAUBurhanpur (2)  02:58 02:50-03:00-2 10m22552.449269mCRBurhanpur, Madhya Pradesh
14KNWKhandwa Junction (5)X  04:35 04:25-04:40 04:30-5m42621.283310mCRKhandwa, Madhya Pradesh
15CAERChhanera (2)  05:02 05:03-05:04-2 1m22666.687283mWCRChhanera, Madhya Pradesh
16HDHarda (3)  05:47-05:49-2m22728.956289mWCRHarda, Madhya Pradesh
17TBNTimarni (2)  06:03 06:04-06:05-2 1m22743.074308mWCRTimarni, Madhya Pradesh
18BPFBanapura (2)  06:28-06:30-2m12771.250314mWCRBanapura, Madhya Pradesh
19ETItarsi Junction (7)X  07:10-07:15-5m22804.760329mWCRItarsi 461111, Madhya Pradesh
20HBDHoshangabad (2)X  07:33-07:35-2m12822.864308mWCRHoshangabad, Madhya Pradesh
21HBJBhopal HabibGanj (5)X  08:38-08:40-2m32890.115496mWCRHabibGanj, Madhya Pradesh
22BPLBhopal Junction (6)O  09:05-09:10-5m22896.487497mWCRBhopal, Madhya Pradesh
23BHSVidisha (3)  09:47-09:49-2m12949.981 WCRVidisha, Madhya Pradesh
24BAQGanj Basoda (4)X  10:18-10:20-2m22989.250 WCRVidisha, Madhya Pradesh
25BINABina Junction (4)  11:15-11:20-5m221035.058414mWCRJn Pt - KATNI/GUNA/ BPL/JHS, Madhya Pradesh
26DUADhaura (3)X  11:56-11:58-2m--21069.681407mNCRDhaura Tanda, Madhya Pradesh
27LARLalitpur (3)  12:19-12:21-2m321097.990373mNCRLalitpur, Uttar Pradesh
28BABBabina (3)X  13:04-13:06-2m221162.753285mNCRBabina, Uttar Pradesh
29JHSJhansi Junction (7)X  13:40 13:35-13:50 13:45-10m521188.275259mNCRJhansi, Uttar Pradesh
30DAADatia (2)X  14:12 14:05-14:14 14:07-2m221213.283264mNCRDatia, Madhya Pradesh
31DBADabra (3)X  14:36 14:29-14:38 14:31-2m221243.665 NCRDabra(District-Gwalior), Madhya Pradesh
32GWLGwalior Junction (4)  15:15 15:10-15:20 15:15-5m221285.993214mNCRGwalior, Madhya Pradesh
33MRAMorena (3)  15:45 15:40-15:47 15:42-2m221324.470176mNCRMorena, Madhya Pradesh
34DHODholpur Junction (3)  16:10 16:05-16:12 16:07-2m121351.353177mNCRDholpur, Rajasthan
35AGCAgra Cantt. (6)X  17:07-17:12-5m321403.934174mNCRAgra, Uttar Pradesh
36RKMRaja Ki Mandi (4)  17:19-17:21-2m121407.976170mNCRAgra, Uttar Pradesh
37MTJMathura Junction (10)X  18:04 18:00-18:07 18:05-3 5m321457.671179mNCRMathura, Uttar Pradesh
38FDBFaridabad (4)X  19:41-19:43-2m221570.732206mNRold Faridabad, Haryana
39NZMDelhi Hazrat Nizamuddin (7)  20:16 20:22-20:18 20:24-2m221591.521209mNRNew Delhi 110013, Delhi NCT
40NDLSNew Delhi (16)X  20:45-21:05-20m621598.915215mNRNew Delhi, Delhi NCT
41SZMDelhi Sabzi Mandi (2)  21:21-21:23-2m121603.067220mNRGulabi Bagh, Delhi NCT
42NURNarela (2)XO  21:47 21:44-21:49 21:46-2m221626.368222mNRNarela, Delhi NCT
43SNPSonipat (3)  22:06 22:01-22:08 22:03-2m221643.464225mNRSonipat, Haryana
44GNUGanaurX  22:24 22:18-22:26 22:20-2m--21659.357222mNRGanaur, Haryana
45SMKSamalkha (3)22:40 22:33-22:41 22:35-1 2m--21671.551229mNRSamalkha, Haryana
46PNPPanipat Junction (5)  23:02 22:55-23:04 22:57-2m321688.544235mNRPanipat, Haryana
47GRAGharaunda (2)23:21 23:20-23:22-1 2m--21705.566244mNRGharaunda, Haryana
48KUNKarnal (3)  23:38-23:40-2m221722.952253mNRKarnal, Haryana
49TRRTaraori (2)  23:54-23:56-2m121735.038255mNRTaraori, Haryana
50KKDEKurukshetra Junction (3)  00:29-00:31-2m131756.052260mNRKurukshetra, Haryana
51UMBAmbala Cantt. Junction (7)XO  01:20-01:32-12m331798.138278mNRAmbala 133001, Haryana
52UBCAmbala City (3)X  01:45 01:44-01:46-1 2m331805.782273mNRNH-1, Haryana
53RPJRajpura Junction (3)XO  02:02 02:01-02:03-1 2m131826.251272mNRNH-1, Punjab
54SIRSirhind Junction (3)X  02:32-02:34-2m131851.083271mNRSirhind, Punjab
55KNNKhanna (3)X  02:48 02:47-02:49-1 2m131868.954269mNRNH 1, Punjab
56LDHLudhiana Junction (7)X03:35 03:37-03:45 03:47-10m331911.858246mNRLudhiana 141001, Punjab
57PGWPhagwara Junction (3)X  04:22 04:24-04:24 04:26-2m231947.470245mNRPhagwara, Punjab
58JRCJalandhar Cantt. Junction (3)  04:40-04:45-5m131963.755239mNRNear Rama Mandi, Punjab
59TDOTanda Urmar (3)  05:26 05:31-05:28 05:33-2m132006.061239mNRUrmar Tanda, Punjab
60DZADasuya (2)  05:43 05:48-05:45 05:50-2m232021.350251mNRDasuya distt. hoshiarpur, Punjab
61MEXMukerian (3)  06:03 06:08-06:05 06:10-2m232036.448257mNRMukerian distt. hosiharpur, Punjab
62PTKCPathankot Cantt (3)  07:00-07:05-5m232076.242328mNRPathankot By Pass Ph:0186-2251594, Punjab
63KTHUKathua (2)  07:38-07:40-2m132099.369396mNRdistt. kathua, Jammu and Kashmir
64SMBXSamba (2)X  08:18-08:20-2m232143.025365mNRDist. Samba, Jammu and Kashmir
65VJPJVijaypur Jammu (2)XO  08:47-08:49-2m132154.418353mNRdistt. samba, Jammu and Kashmir
66JAT•Jammu Tawi (3)•  10:00--132175.6-337mNRJammu 180002, Jammu and Kashmir
Scroll to Top
Scroll to Bottom